Showing default

ORBCOMM FM 119, 41180

Orbit data source: Space-Track

ORBCOMM FM 119, 41180 is a payload satellite owned by Orbcomm (US) in LEO that was launched on Tue, 22 Dec 2015 UTC via an FALCON 9 launch vehicle from the Air Force Eastern Test Range (AFETR). Payload-class satellites include a variety of spacecraft equipped with specific instruments for various scientific and technological missions. These include communications satellites like Starlink; space stations such as the ISS; scientific satellites like the Hubble; Earth observation satellites from companies like Planet Labs, Umbra, and HawkEye 360; GPS; miniature CubeSats for education and research; and military/defense satellites.

Loading next visibility...
Identifier
41180, 2015-081B
Orbit
LEO
Country
Flag of USUS / ORB
Related business
Manufacturer
SNC Louisville
Mission
Non-operational Commercial Communications
Bus & Motor
SN-100A, Unknown motor
Mass
172 kg wet, 158 kg dry
Launch date (UTC)
2015-12-22 (10 years ago)
Launch vehicle
FALCON 9
Launch site
Air Force Eastern Test Range (AFETR)
Object type
Payload
Rocket body
Debris
Shape & HBR
Box + 1 Pan + 1 Ant, 10.3 m
Radar Cross Section
2.222 m², Medium (>0.1 m² and < 1m²)

Expand to show TLE details & history
Last TLE update: 17 hours ago

TLE from 17 hours ago
0 ORBCOMM FM 119
1 41180U 15081B   25353.18116044  .00000439  00000-0  12986-3 0  9997
2 41180  47.0014  42.2392 0001448 220.7174 139.3603 14.58512179532721
Epoch: 2025-12-19T04:20Z
TLE epoch observation values (Epoch: 2025-12-19T04:20:52.262Z)
Latitude
-0.00004°
Longitude
-111.0046°
Altitude
698.975 km
Speed
7.508 km/s
True Right ascension
02h 48m 57s
True Declination
0° 00' 00"
Sunlit
Object was in full shadow at epoch
Visualization orbit readout
Latitude
Unknown
Longitude
Unknown
Altitude
Unknown
Speed
Unknown
Apparent Right ascension
Unknown
Apparent Declination
Unknown
Sunlit
N/A
Visualization observer readout
Local Sidereal Time
19:57:39
Azimuth
Unknown
Elevation
Unknown
Doppler factor
Unknown
Orbital elements
Apogee altitude
700.242 km
Perigee altitude
698.192 km
Semi-major axis
7,077.354 km
Eccentricity
0.00014
Inclination
47.0014°
RAAN
42.2392°
Arg. of periapsis
220.7174°
True anomaly
139.37111°
Mean anomaly
139.3603°
Eccentric anomaly
139.3657°
Mean motion
3.64533 °/min
Orbital period
98.76 mins
BSTAR
0.00012986
Loading maneuver chart data...
Computing Atmospheric mass density...
Loading historical data...
Loading historical data...
Loading historical data...
Loading historical data...
Loading historical data...
Loading historical data...
Loading historical data...

Documentation

Showing up to 5 results
|